GAOFEN-11 01

Last updated on Wed Sep 17 2025 00:02:31 GMT+0000 (Coordinated Universal Time)

1 43585U 18063A 25259.65463453 .00013267 00000+0 27481-3 0 9995 2 43585 97.1699 323.4630 0004372 252.6579 107.4193 15.45867533397956
UTC large
Height (km)
Speed (km/s)
/
Latitude / Longitude
Inclination (degrees)
Orbital Period (minutes)
Azimuth
Elevation
Range (km)
Doppler Factor

Next 0 passes for location: London (51.5072 / 0.1276)

Sorry there are no passes over London.